Location: Tel Aviv
(32.0670°N, 34.7670°E)
Time: 03:05:41
(UTC+03:00)

Tiros 1 - Pass Details

Date: 28 January 2022
Orbit: 629 x 663 km, 48.4° (Epoch: 26 May)

Event Time Altitude Azimuth Distance (km) Brightness Sun altitude
Rises 23:04:05 0° 296° (WNW) 2,993 - -72.0°
Reaches altitude 10° 23:07:58 10° 327° (NNW) 2,080 - -72.5°
Maximum altitude 23:09:50 12° 350° (N) 1,941 - -72.8°
Drops below altitude 10° 23:11:43 10° 13° (NNE) 2,077 - -73.0°
Sets 23:15:36 0° 45° (NE) 2,984 - -73.5°
